Time,TemperatureF,DewpointF,PressureIn,WindDirection,WindDirectionDegrees,WindSpeedMPH,WindSpeedGustMPH,Humidity,HourlyPrecipIn,Conditions,Clouds,dailyrainin,SoftwareType,DateUTC
2013-07-08 00:11:00,74.0,38.0,-100.00,NNW,328,7.0,9.0,27,-99.99,,,-99.99,,2013-07-08 07:11:00,
2013-07-08 00:22:00,74.0,38.0,-100.00,NW,326,7.0,9.0,27,-99.99,,,-99.99,,2013-07-08 07:22:00,
2013-07-08 00:34:00,74.0,38.0,-100.00,NW,326,7.0,9.0,27,-99.99,,,-99.99,,2013-07-08 07:34:00,
2013-07-08 00:44:00,74.0,37.0,-100.00,NW,325,7.0,9.0,26,-99.99,,,-99.99,,2013-07-08 07:44:00,
2013-07-08 01:11:00,75.0,36.0,-100.00,NW,318,8.0,10.0,24,-99.99,,,-99.99,,2013-07-08 08:11:00,
2013-07-08 01:22:00,75.0,37.0,-100.00,NW,313,8.0,10.0,25,-99.99,,,-99.99,,2013-07-08 08:22:00,
2013-07-08 01:42:00,75.0,39.0,-100.00,NW,310,7.0,9.0,27,-99.99,,,-99.99,,2013-07-08 08:42:00,
2013-07-08 01:52:00,75.0,40.0,-100.00,NW,309,7.0,8.0,28,-99.99,,,-99.99,,2013-07-08 08:52:00,
2013-07-08 02:11:00,74.0,38.0,-100.00,NW,312,7.0,9.0,27,-99.99,,,-99.99,,2013-07-08 09:11:00,
2013-07-08 02:21:00,74.0,37.0,-100.00,NW,307,7.0,8.0,26,-99.99,,,-99.99,,2013-07-08 09:21:00,
2013-07-08 02:52:00,74.0,35.0,-100.00,NW,324,6.0,8.0,24,-99.99,,,-99.99,,2013-07-08 09:52:00,
2013-07-08 03:11:00,75.0,34.0,-100.00,NW,317,7.0,8.0,22,-99.99,,,-99.99,,2013-07-08 10:11:00,
2013-07-08 03:22:00,75.0,31.0,-100.00,NW,313,6.0,8.0,20,-99.99,,,-99.99,,2013-07-08 10:22:00,
2013-07-08 03:43:00,75.0,30.0,-100.00,NW,313,6.0,8.0,19,-99.99,,,-99.99,,2013-07-08 10:43:00,
2013-07-08 03:53:00,75.0,30.0,-100.00,NW,313,7.0,9.0,19,-99.99,,,-99.99,,2013-07-08 10:53:00,
2013-07-08 04:11:00,75.0,30.0,-100.00,NW,310,7.0,10.0,19,-99.99,,,-99.99,,2013-07-08 11:11:00,
2013-07-08 04:33:00,75.0,26.0,-100.00,NW,310,8.0,11.0,16,-99.99,,,-99.99,,2013-07-08 11:33:00,
2013-07-08 06:11:00,76.0,22.0,-100.00,WNW,294,4.0,7.0,13,-99.99,,,-99.99,,2013-07-08 13:11:00,
2013-07-08 06:22:00,76.0,22.0,-100.00,WNW,294,4.0,7.0,13,-99.99,,,-99.99,,2013-07-08 13:22:00,
2013-07-08 06:33:00,76.0,22.0,-100.00,WNW,294,4.0,7.0,13,-99.99,,,-99.99,,2013-07-08 13:33:00,
2013-07-08 06:42:00,76.0,22.0,-100.00,WNW,301,5.0,7.0,13,-99.99,,,-99.99,,2013-07-08 13:42:00,
2013-07-08 06:53:00,76.0,22.0,-100.00,NW,318,4.0,8.0,13,-99.99,,,-99.99,,2013-07-08 13:53:00,
2013-07-08 07:12:00,77.0,22.0,-100.00,NW,325,4.0,6.0,13,-99.99,,,-99.99,,2013-07-08 14:12:00,
2013-07-08 07:22:00,77.0,22.0,-100.00,NNW,339,3.0,6.0,13,-99.99,,,-99.99,,2013-07-08 14:22:00,
2013-07-08 07:43:00,79.0,22.0,-100.00,North,355,3.0,7.0,12,-99.99,,,-99.99,,2013-07-08 14:43:00,
2013-07-08 07:53:00,79.0,22.0,-100.00,North,355,3.0,7.0,12,-99.99,,,-99.99,,2013-07-08 14:53:00,
2013-07-08 08:11:00,79.0,24.0,-100.00,NNW,343,3.0,7.0,13,-99.99,,,-99.99,,2013-07-08 15:11:00,
2013-07-08 08:43:00,80.0,25.0,-100.00,NW,317,3.0,5.0,13,-99.99,,,-99.99,,2013-07-08 15:43:00,
2013-07-08 08:53:00,81.0,26.0,-100.00,NW,312,4.0,7.0,13,-99.99,,,-99.99,,2013-07-08 15:53:00,
2013-07-08 09:11:00,80.0,25.0,-100.00,NW,308,4.0,8.0,13,-99.99,,,-99.99,,2013-07-08 16:11:00,
2013-07-08 09:22:00,81.0,26.0,-100.00,NW,306,4.0,7.0,13,-99.99,,,-99.99,,2013-07-08 16:22:00,
2013-07-08 09:43:00,82.0,26.0,-100.00,WNW,288,3.0,7.0,13,-99.99,,,-99.99,,2013-07-08 16:43:00,
2013-07-08 09:53:00,83.0,25.0,-100.00,West,266,4.0,8.0,12,-99.99,,,-99.99,,2013-07-08 16:53:00,
2013-07-08 10:02:00,83.0,25.0,-100.00,WSW,245,4.0,7.0,12,-99.99,,,-99.99,,2013-07-08 17:02:00,
2013-07-08 10:23:00,85.0,27.0,-100.00,West,261,3.0,6.0,12,-99.99,,,-99.99,,2013-07-08 17:23:00,
2013-07-08 11:01:00,85.0,29.0,-100.00,NW,306,3.0,7.0,13,-99.99,,,-99.99,,2013-07-08 18:01:00,
2013-07-08 11:14:00,85.0,29.0,-100.00,NW,306,3.0,7.0,13,-99.99,,,-99.99,,2013-07-08 18:14:00,
2013-07-08 11:24:00,85.0,29.0,-100.00,NW,306,3.0,7.0,13,-99.99,,,-99.99,,2013-07-08 18:24:00,
2013-07-08 11:46:00,87.0,32.0,-100.00,WSW,239,7.0,12.0,14,-99.99,,,-99.99,,2013-07-08 18:46:00,
2013-07-08 14:23:00,86.0,39.0,-100.00,WSW,240,10.0,19.0,19,-99.99,,,-99.99,,2013-07-08 21:23:00,
2013-07-08 14:56:00,87.0,40.0,-100.00,WSW,237,11.0,18.0,19,-99.99,,,-99.99,,2013-07-08 21:56:00,
2013-07-08 15:04:00,86.0,40.0,-100.00,WSW,242,11.0,17.0,20,-99.99,,,-99.99,,2013-07-08 22:04:00,
2013-07-08 15:54:00,86.0,40.0,-100.00,SW,236,13.0,20.0,20,-99.99,,,-99.99,,2013-07-08 22:54:00,
2013-07-08 16:23:00,86.0,38.0,-100.00,WSW,239,13.0,18.0,18,-99.99,,,-99.99,,2013-07-08 23:23:00,
2013-07-08 16:54:00,86.0,38.0,-100.00,WSW,247,12.0,20.0,18,-99.99,,,-99.99,,2013-07-08 23:54:00,
2013-07-08 17:13:00,86.0,38.0,-100.00,WSW,254,11.0,19.0,18,-99.99,,,-99.99,,2013-07-09 00:13:00,
2013-07-08 17:23:00,86.0,38.0,-100.00,West,266,11.0,18.0,18,-99.99,,,-99.99,,2013-07-09 00:23:00,
2013-07-08 17:54:00,85.0,37.0,-100.00,WSW,254,10.0,18.0,18,-99.99,,,-99.99,,2013-07-09 00:54:00,
2013-07-08 18:13:00,85.0,37.0,-100.00,WSW,255,11.0,16.0,18,-99.99,,,-99.99,,2013-07-09 01:13:00,
2013-07-08 18:23:00,84.0,36.0,-100.00,West,262,11.0,17.0,18,-99.99,,,-99.99,,2013-07-09 01:23:00,
2013-07-08 18:46:00,83.0,38.0,-100.00,WSW,255,11.0,16.0,20,-99.99,,,-99.99,,2013-07-09 01:46:00,
2013-07-08 18:55:00,82.0,38.0,-100.00,West,261,9.0,14.0,21,-99.99,,,-99.99,,2013-07-09 01:55:00,
2013-07-08 19:44:00,80.0,41.0,-100.00,West,279,7.0,11.0,25,-99.99,,,-99.99,,2013-07-09 02:44:00,
2013-07-08 19:55:00,79.0,41.0,-100.00,WNW,288,6.0,9.0,26,-99.99,,,-99.99,,2013-07-09 02:55:00,
2013-07-08 21:33:00,79.0,26.0,-100.00,NW,315,8.0,12.0,14,-99.99,,,-99.99,,2013-07-09 04:33:00,
2013-07-08 22:11:00,79.0,26.0,-100.00,NW,315,9.0,11.0,14,-99.99,,,-99.99,,2013-07-09 05:11:00,
2013-07-08 22:22:00,79.0,26.0,-100.00,NW,314,9.0,11.0,14,-99.99,,,-99.99,,2013-07-09 05:22:00,
2013-07-08 22:52:00,79.0,32.0,-100.00,NW,316,8.0,11.0,18,-99.99,,,-99.99,,2013-07-09 05:52:00,
2013-07-08 23:11:00,79.0,39.0,-100.00,NW,324,7.0,10.0,24,-99.99,,,-99.99,,2013-07-09 06:11:00,
2013-07-08 23:22:00,79.0,39.0,-100.00,NW,324,7.0,10.0,24,-99.99,,,-99.99,,2013-07-09 06:22:00,
2013-07-08 23:43:00,79.0,41.0,-100.00,NW,324,7.0,10.0,26,-99.99,,,-99.99,,2013-07-09 06:43:00,
2013-07-08 23:53:00,79.0,39.0,-100.00,NW,321,7.0,10.0,24,-99.99,,,-99.99,,2013-07-09 06:53:00,